Regional Weather Roundup
Issued by NWS

Home | Current Version | Previous Version | Text Only | Print | Product List | Glossary Off
Versions: 1 2 3 4 5 6 7 8 9 10 11 12 13 14 15 16 17 18 19 20 21 22 23 24 25 26 27 28 29 30 31 32 33 34 35 36 37 38 39 40 41 42 43 44 45 46 47 48 49 50

000
ASUS43 KLMK 080302
RWRKY
KENTUCKY REGIONAL WEATHER ROUNDUP
NATIONAL WEATHER SERVICE LOUISVILLE KY
1000 PM EST SUN FEB 07 2016

NOTE "FAIR" INDICATES FEW OR NO CLOUDS BELOW 12,000 FEET
WITH NO SIGNIFICANT WEATHER AND/OR OBSTRUCTIONS TO VISIBILITY.

KYZ001>023-026-027-061>063-070>075-080400-
WESTERN AND SOUTH CENTRAL KENTUCKY

CITY           SKY/WX    TMP DP  RH WIND       PRES   REMARKS
PADUCAH        MOCLDY    47  32  56 SW10      29.88F
HENDERSON      CLOUDY    46  30  53 W10       29.86S
OWENSBORO      PTCLDY    46  33  60 SW9       29.85F
HOPKINSVILLE   CLOUDY    47  28  46 SW10      29.90S
BOWLING GREEN  CLOUDY    46  23  40 SW6       29.89F
GLASGOW        NOT AVBL
$$

KYZ024-025-028>034-038-045-046-053-080400-
NORTH CENTRAL KENTUCKY

CITY           SKY/WX    TMP DP  RH WIND       PRES   REMARKS
LOUISVILLE/SDF CLOUDY    48  21  34 SW8       29.83F
LOUISVILLE/LOU CLOUDY    48  22  35 S6        29.84F
FORT KNOX      CLOUDY    44  23  43 S7        29.83F
$$

KYZ035>037-039>044-047>052-055>060-089>105-080400-
NORTHEAST KENTUCKY

CITY           SKY/WX    TMP DP  RH WIND       PRES   REMARKS
LEXINGTON      CLOUDY    42  22  44 S9        29.86F
COVINGTON      CLOUDY    45  22  40 S7        29.81F
FRANKFORT      MOCLDY    43  21  41 S6        29.84F
$$

KYZ054-064>069-076>088-106>120-080400-
SOUTHEAST KENTUCKY

CITY           SKY/WX    TMP DP  RH WIND       PRES   REMARKS
JACKSON        PTCLDY    42  20  41 SW3       29.89F
LONDON         CLEAR     40  20  44 S5        29.91S
SOMERSET       NOT AVBL
MIDDLESBORO    NOT AVBL
MONTICELLO     PTCLDY    31  27  85 CALM      29.92F
$$




USA.gov is the U.S. government's official web portal to all federal, state and local government web resources and services.